TimeCST,TemperatureF,Dew PointF,Humidity,Sea Level PressureIn,VisibilityMPH,Wind Direction,Wind SpeedMPH,Gust SpeedMPH,PrecipitationIn,Events,Conditions,WindDirDegrees,DateUTC
12:12 AM,28.4,23.0,80,29.56,10.0,South,11.5,-,N/A,,Clear,170,2014-01-12 06:12:00
12:33 AM,30.2,23.0,75,29.55,10.0,South,13.8,-,N/A,,Clear,180,2014-01-12 06:33:00
12:53 AM,32.0,23.0,69,29.53,10.0,South,17.3,20.7,N/A,,Clear,180,2014-01-12 06:53:00
1:12 AM,32.0,24.8,75,29.52,10.0,South,16.1,-,N/A,,Clear,170,2014-01-12 07:12:00
1:33 AM,33.8,24.8,70,29.50,10.0,South,16.1,19.6,N/A,,Clear,170,2014-01-12 07:33:00
1:52 AM,35.6,24.8,65,29.48,10.0,South,18.4,25.3,N/A,,Clear,170,2014-01-12 07:52:00
2:12 AM,35.6,26.6,70,29.46,10.0,South,20.7,26.5,N/A,,Clear,170,2014-01-12 08:12:00
2:33 AM,37.4,28.4,70,29.45,10.0,South,18.4,28.8,N/A,,Mostly Cloudy,170,2014-01-12 08:33:00
2:52 AM,37.4,26.6,65,29.43,10.0,South,18.4,27.6,N/A,,Mostly Cloudy,170,2014-01-12 08:52:00
3:12 AM,37.4,26.6,65,29.42,10.0,South,19.6,25.3,N/A,,Scattered Clouds,180,2014-01-12 09:12:00
3:33 AM,35.6,26.6,70,29.40,10.0,South,13.8,23.0,N/A,,Clear,180,2014-01-12 09:33:00
3:52 AM,35.6,26.6,70,29.39,10.0,South,17.3,21.9,N/A,,Clear,180,2014-01-12 09:52:00
4:12 AM,35.6,26.6,70,29.37,10.0,South,18.4,23.0,N/A,,Clear,180,2014-01-12 10:12:00
4:33 AM,35.6,26.6,70,29.35,10.0,South,17.3,25.3,N/A,,Clear,180,2014-01-12 10:33:00
4:52 AM,35.6,26.6,70,29.35,10.0,South,18.4,25.3,N/A,,Clear,190,2014-01-12 10:52:00
5:12 AM,35.6,26.6,70,29.35,10.0,South,13.8,23.0,N/A,,Clear,180,2014-01-12 11:12:00
5:33 AM,35.6,26.6,70,29.35,10.0,South,13.8,19.6,N/A,,Clear,180,2014-01-12 11:33:00
5:52 AM,35.6,26.6,70,29.33,10.0,South,16.1,23.0,N/A,,Clear,180,2014-01-12 11:52:00
6:13 AM,35.6,28.4,75,29.33,10.0,South,21.9,26.5,N/A,,Clear,190,2014-01-12 12:13:00
6:33 AM,35.6,28.4,75,29.33,10.0,South,16.1,-,N/A,,Clear,190,2014-01-12 12:33:00
6:52 AM,35.6,28.4,75,29.33,10.0,SSW,18.4,25.3,N/A,,Clear,200,2014-01-12 12:52:00
7:13 AM,35.6,28.4,75,29.32,10.0,SSW,19.6,25.3,N/A,,Clear,200,2014-01-12 13:13:00
7:33 AM,35.6,28.4,75,29.31,10.0,SSW,20.7,26.5,N/A,,Clear,200,2014-01-12 13:33:00
7:52 AM,35.6,28.4,75,29.32,10.0,SSW,18.4,24.2,N/A,,Clear,200,2014-01-12 13:52:00
8:13 AM,37.4,28.4,70,29.32,10.0,SSW,20.7,-,N/A,,Clear,210,2014-01-12 14:13:00
8:33 AM,35.6,28.4,75,29.35,10.0,SW,16.1,-,N/A,,Clear,220,2014-01-12 14:33:00
8:52 AM,35.6,28.4,75,29.35,10.0,SW,12.7,-,N/A,,Clear,230,2014-01-12 14:52:00
9:12 AM,37.4,28.4,70,29.38,10.0,SW,17.3,-,N/A,,Clear,230,2014-01-12 15:12:00
9:33 AM,37.4,28.4,70,29.39,10.0,WSW,13.8,21.9,N/A,,Clear,240,2014-01-12 15:33:00
9:52 AM,37.4,30.2,75,29.39,10.0,WSW,10.4,-,N/A,,Clear,250,2014-01-12 15:52:00
10:13 AM,37.4,30.2,75,29.39,10.0,West,11.5,-,N/A,,Clear,270,2014-01-12 16:13:00
10:32 AM,37.4,30.2,75,29.39,10.0,WSW,11.5,-,N/A,,Clear,250,2014-01-12 16:32:00
10:52 AM,37.4,30.2,75,29.40,10.0,WSW,11.5,-,N/A,,Clear,250,2014-01-12 16:52:00
11:13 AM,37.4,30.2,75,29.40,10.0,West,9.2,-,N/A,,Clear,260,2014-01-12 17:13:00
11:32 AM,37.4,32.0,81,29.40,10.0,West,10.4,-,N/A,,Clear,270,2014-01-12 17:32:00
11:52 AM,37.4,32.0,81,29.39,10.0,West,10.4,-,N/A,,Clear,270,2014-01-12 17:52:00
12:13 PM,39.2,32.0,75,29.40,10.0,West,10.4,-,N/A,,Clear,270,2014-01-12 18:13:00
12:32 PM,37.4,32.0,81,29.40,10.0,West,11.5,-,N/A,,Clear,280,2014-01-12 18:32:00
12:52 PM,37.4,32.0,81,29.40,10.0,WNW,11.5,-,N/A,,Clear,290,2014-01-12 18:52:00
1:13 PM,37.4,32.0,81,29.40,10.0,WNW,10.4,-,N/A,,Clear,290,2014-01-12 19:13:00
1:32 PM,37.4,32.0,81,29.40,10.0,WNW,10.4,-,N/A,,Clear,290,2014-01-12 19:32:00
1:53 PM,37.4,32.0,81,29.41,10.0,WNW,11.5,-,N/A,,Clear,290,2014-01-12 19:53:00
2:13 PM,39.2,32.0,75,29.41,10.0,WNW,10.4,-,N/A,,Clear,290,2014-01-12 20:13:00
2:32 PM,37.4,32.0,81,29.40,10.0,WNW,5.8,-,N/A,,Clear,300,2014-01-12 20:32:00
2:53 PM,39.2,30.2,70,29.44,10.0,West,8.1,-,N/A,,Clear,260,2014-01-12 20:53:00
3:13 PM,37.4,32.0,81,29.45,10.0,WSW,8.1,-,N/A,,Clear,250,2014-01-12 21:13:00
3:32 PM,37.4,32.0,81,29.45,10.0,WSW,9.2,-,N/A,,Clear,250,2014-01-12 21:32:00
3:53 PM,37.4,30.2,75,29.46,10.0,West,8.1,-,N/A,,Clear,270,2014-01-12 21:53:00
4:12 PM,37.4,32.0,81,29.47,10.0,West,5.8,-,N/A,,Clear,260,2014-01-12 22:12:00
4:32 PM,37.4,30.2,75,29.47,10.0,WSW,8.1,-,N/A,,Clear,250,2014-01-12 22:32:00
4:53 PM,37.4,30.2,75,29.47,10.0,SW,5.8,-,N/A,,Clear,220,2014-01-12 22:53:00
5:12 PM,37.4,30.2,75,29.47,10.0,WSW,4.6,-,N/A,,Clear,250,2014-01-12 23:12:00
5:32 PM,37.4,30.2,75,29.47,10.0,SW,9.2,-,N/A,,Clear,230,2014-01-12 23:32:00
5:53 PM,37.4,32.0,81,29.49,10.0,WSW,12.7,-,N/A,,Clear,250,2014-01-12 23:53:00
6:12 PM,35.6,32.0,87,29.50,10.0,WSW,10.4,-,N/A,,Clear,250,2014-01-13 00:12:00
6:32 PM,35.6,32.0,87,29.51,10.0,WSW,11.5,-,N/A,,Clear,250,2014-01-13 00:32:00
6:53 PM,35.6,32.0,87,29.52,10.0,WSW,11.5,-,N/A,,Clear,250,2014-01-13 00:53:00
7:12 PM,35.6,32.0,87,29.54,10.0,WSW,10.4,-,N/A,,Clear,240,2014-01-13 01:12:00
7:32 PM,37.4,32.0,81,29.53,10.0,WSW,11.5,-,N/A,,Clear,240,2014-01-13 01:32:00
7:53 PM,37.4,30.2,75,29.54,10.0,WSW,11.5,-,N/A,,Clear,240,2014-01-13 01:53:00
8:12 PM,37.4,30.2,75,29.55,10.0,WSW,10.4,-,N/A,,Clear,240,2014-01-13 02:12:00
8:32 PM,35.6,30.2,81,29.55,10.0,WSW,10.4,-,N/A,,Clear,250,2014-01-13 02:32:00
8:53 PM,37.4,30.2,75,29.55,10.0,WSW,12.7,-,N/A,,Clear,250,2014-01-13 02:53:00
9:12 PM,37.4,30.2,75,29.54,10.0,West,16.1,-,N/A,,Clear,270,2014-01-13 03:12:00
9:32 PM,37.4,30.2,75,29.54,10.0,West,13.8,-,N/A,,Clear,260,2014-01-13 03:32:00
9:53 PM,37.4,30.2,75,29.55,10.0,West,12.7,-,N/A,,Clear,270,2014-01-13 03:53:00
10:12 PM,37.4,30.2,75,29.55,10.0,West,9.2,-,N/A,,Clear,270,2014-01-13 04:12:00
10:32 PM,37.4,30.2,75,29.55,10.0,West,9.2,-,N/A,,Clear,260,2014-01-13 04:32:00
10:52 PM,37.4,30.2,75,29.55,10.0,West,10.4,-,N/A,,Clear,260,2014-01-13 04:52:00
11:12 PM,35.6,30.2,81,29.53,10.0,WSW,11.5,-,N/A,,Clear,250,2014-01-13 05:12:00
11:33 PM,37.4,30.2,75,29.54,10.0,West,15.0,-,N/A,,Clear,260,2014-01-13 05:33:00
11:52 PM,35.6,30.2,81,29.55,10.0,West,10.4,-,N/A,,Clear,260,2014-01-13 05:52:00